Location: Doverdale
(52.2833°N, 2.2000°W)
Time: 02:59:35
(UTC+00:00)

Cosmos 1980 Rocket - Pass Details

Date: 02 March 2021
Orbit: 828 x 851 km, 71.0° (Epoch: 15 April)

Event Time Altitude Azimuth Distance (km) Brightness Sun altitude
Rises 20:55:50 0° 279° (W) 3,410 6.4 -28.3°
Reaches altitude 10° 20:59:21 10° 301° (WNW) 2,481 5.6 -28.8°
Maximum altitude 21:02:43 16° 337° (NNW) 2,107 4.8 -29.3°
Drops below altitude 10° 21:06:05 10° 14° (NNE) 2,490 4.8 -29.7°
Enters shadow 21:09:22 - 35° (NE) 3,344 5.3 -30.1°
